Regional Weather Roundup
Issued by NWS

Home | Current Version | Previous Version | Text Only | Print | Product List | Glossary On
Versions: 1 2 3 4 5 6 7 8 9 10 11 12 13 14 15 16 17 18 19 20 21 22 23 24 25 26 27 28 29 30 31 32 33 34 35 36 37 38 39 40 41 42 43 44 45 46 47 48 49 50
000
ASUS43 KMKX 011259
RWRWI

WISCONSIN REGIONAL WEATHER ROUNDUP
NATIONAL WEATHER SERVICE MILWAUKEE/SULLIVAN WI
800 AM CDT TUE SEP 01 2015

NOTE: "FAIR" INDICATES FEW OR NO CLOUDS BELOW 12,000 FEET WITH NO
SIGNIFICANT WEATHER AND/OR OBSTRUCTIONS TO VISIBILITY.

WIZ001-002-006>008-014>016-023>028-011400-
NORTHWEST WISCONSIN

CITY           SKY/WX    TMP DP  RH WIND       PRES   REMARKS
SUPERIOR ARPT  FAIR      70  69  97 CALM      29.90R FOG
ASHLAND        FAIR      72  71  97 S5        29.91S FOG
HAYWARD        FAIR      71  69  93 S6        29.94S FOG
SIREN          PTSUNNY   71  68  92 S3        29.93S
CUMBERLAND     FOG       66  64  94 CALM      29.95S VSB<1/4
RICE LAKE      FOG       69  68  96 S3        29.97R VSB 3/4
CHETEK         CLOUDY   N/A N/A N/A CALM      29.95S FOG
LADYSMITH      FOG       70  69  96 S6        29.98S VSB<1/4
EAU CLAIRE     NOT AVBL
MENOMONIE      FOG       68  67  98 E3        29.95S VSB<1/4
NEW RICHMOND   FAIR      69  68  96 S5        29.95R FOG
OSCEOLA        FAIR      70  70 100 S3        29.96R
$$

WIZ003>005-009-010-017-018-011400-
NORTH CENTRAL WISCONSIN

CITY           SKY/WX    TMP DP  RH WIND       PRES   REMARKS
MANITOWISH WTR CLOUDY    70  70 100 S5        29.98S FOG
ARBOR VITAE    PTSUNNY   72  71  96 S5        29.99S FOG
WOODRUFF       PTSUNNY   72  71  96 S5        29.99S FOG
RHINELANDER    NOT AVBL
EAGLE RIVER    CLOUDY    69  69 100 CALM      30.00S FOG
LAND O LAKES   CLOUDY    69  69  99 CALM      30.01S FOG
PHILLIPS       CLOUDY    69  69 100 SW5       29.98R FOG
TOMAHAWK       CLOUDY    67  66  97 CALM      30.01S FOG
MEDFORD        CLOUDY    65  65 100 S5        30.00S
MERRILL        FAIR      65  65 100 CALM      30.00S FOG
$$

WIZ029-030-035-036-043>047-011400-
CENTRAL WISCONSIN

CITY           SKY/WX    TMP DP  RH WIND       PRES   REMARKS
WAUSAU         FAIR      69  67  93 CALM      29.98F FOG
MOSINEE        NOT AVBL
MARSHFIELD     NOT AVBL
STEVENS POINT  FAIR      68  67  96 S3        30.01S FOG
WAUPACA        FAIR      68  67  96 CALM      30.01R FOG
WAUTOMA        FOG       64  64 100 CALM      30.01S VSB 3/4
WISC RAPIDS    NOT AVBL
CAMP DOUGLAS   NOT AVBL
$$

WIZ011>013-019>022-031-037>040-048>050-011400-
NORTHEAST WISCONSIN

CITY           SKY/WX    TMP DP  RH WIND       PRES   REMARKS
ANTIGO         FAIR      69  68  98 SW5       30.02S FOG
SHAWANO        CLOUDY    69  67  95 CALM      30.00R FOG
OCONTO         FAIR      65  65 100 CALM      30.00R
STURGEON BAY   FAIR      68  64  88 S7        30.03S
GREEN BAY      FAIR      70  68  93 S5        30.00S
MANITOWOC      FAIR      57  55  94 MISG      30.03R FOG
APPLETON       PTSUNNY   68  68 100 VRB3      30.00R FOG
CLINTONVILLE   CLOUDY    64  64 100 CALM      30.00S FOG
OSHKOSH        FAIR      71  68  90 S9        30.01R FOG
$$

WIZ032>034-041-042-053>061-011400-
SOUTHWEST WISCONSIN

CITY           SKY/WX    TMP DP  RH WIND       PRES   REMARKS
LA CROSSE      FAIR      71  70  96 SE6       29.97R FOG
SPARTA         FAIR      65  64  94 CALM      29.99S
VIROQUA          N/A     69  69 100 CALM      30.01S VSB 1/2
BOSCOBEL       FOG       68  67  96 CALM      30.00S VSB<1/4
PRAIRIE DU CHI PTSUNNY   70  68  94 CALM      29.99S FOG
PLATTEVILLE      N/A     70  69  99 SE7       30.03R
$$

WIZ056-057-062-063-064-067-068-011400-
SOUTH CENTRAL WISCONSIN

CITY           SKY/WX    TMP DP  RH WIND       PRES   REMARKS
REEDSBURG      FAIR      71  70  96 S3        30.00S FOG
BARABOO/DELLS  FAIR      71  68  91 S3        30.02R FOG
LONE ROCK      FAIR      68  66  93 CALM      30.01S FOG
MINERAL POINT  FOG       70  68  94 SE5       30.04R VSB<1/4
MADISON        FAIR      72  69  90 S6        30.02R FOG
MIDDLETON      FAIR      73  72  94 SW5       30.03S
WATERTOWN      FAIR      70  70 100 S3        30.03R FOG
MONROE         FOG       70  68  94 S7        30.04S VSB 1/2
JANESVILLE     SUNNY     73  72  94 S3        30.04R FOG
$$

WIZ051-052-058>065-066-070>072-011400-
SOUTHEAST WISCONSIN

CITY           SKY/WX    TMP DP  RH WIND       PRES   REMARKS
MILWAUKEE      FAIR      72  68  87 SW8       30.03S FOG
WAUKESHA       MOSUNNY   68  66  94 CALM      30.05S FOG
MILWAUKEE/TIMM MOSUNNY   70  64  83 CALM      30.04S FOG
RACINE         FAIR      73  69  87 S5        30.06R FOG
BURLINGTON       N/A     64  64 100 CALM      30.05R FOG
KENOSHA        FAIR      73  71  93 SW6       30.05R FOG
FOND DU LAC    FOG       73  70  90 S6        30.02R VSB 1
SHEBOYGAN      FAIR      67  66  97 S3        30.03S FOG
WEST BEND      FAIR      64  63  94 CALM      30.03S FOG
JUNEAU         PTSUNNY   69  68  96 S3        30.04S FOG
$$

LSZ147-162-011400-
LAKE SUPERIOR

STATION/POSITION TIME  TEMP    WIND        PRES    WAVE
                       AIR SEA DIR/SP/G            HT/PER
                 (UTC) (F)     (DEG/KT/KT) (MB)    (FT/S)
$$

LMZ867-665-643>646-011400-
LAKE MICHIGAN

STATION/POSITION TIME  TEMP    WIND        PRES    WAVE
                       AIR SEA DIR/SP/G            HT/PER
                 (UTC) (F)     (DEG/KT/KT) (MB)    (FT/S)
$$

TC  - TEMPERATURE IN CELSIUS
VSB - VISIBILITY IN STATUTE MILES
WCI - WIND CHILL INDEX
HX  - HEAT INDEX



USA.gov is the U.S. government's official web portal to all federal, state and local government web resources and services.